Home > Weather > Esfahãn > Past weeks

Flag for Iran Past Weather in Esfahãn, Iran — Yesterday and Last 2 Weeks

Now
91 °F

Passing clouds.


Feels Like: 87 °F
Forecast: 55 / 86 °F
Wind: 14 mph from North

Location: Esfahan

Current Time: May 24, 2016 at 4:33:58 PM

Latest Report: May 24, 2016 at 4:00 PM


Visibility: N/A

Pressure: 29.89 "Hg (25.07 "Hg at 1576m altitude)

Humidity: 8%

Dew Point: 23 °F

Location of EsfahãnLocation

Past Weather in Esfahãn — Graph

°F

Esfahãn Temperature Yesterday

Maximum temperature yesterday: 88 °F (at 3:00 PM)
Minimum temperature yesterday: 52 °F (at 6:30 AM)
Average temperature yesterday: 74 °F

High & Low Weather Summary for the Past Weeks

 TemperatureHumidityPressure
High93 °F (May 17, 2:55 PM)94% (May 11, 2:30 AM)30.15 "Hg (May 11, 2:30 AM)
Low46 °F (May 12, 4:00 AM)4% (May 21, 2:00 PM)29.86 "Hg (May 20, 3:00 PM)
Average72 °F31%30.01 "Hg
* Reported May 9 2:30 PM — May 24 3:00 PM, Esfahãn, Weather by CustomWeather, © 2016

Note: Actual official high and low records may vary slightly from our data, if they occured in-between our weather recording intervals... More about our weather records

Advertising

Esfahãn Weather History for the Previous 24 Hours

Scroll right to see more
 ConditionsComfort  
Time TempWeatherWind HumidityBarometerVisibility
3:00 PM
Tue, May 24
88 °FSunny.12 mph9%29.92 "Hg10 mi
2:30 PM88 °FSunny.No wind9%29.92 "Hg10 mi
2:00 PM86 °FSunny.12 mph10%29.95 "Hg10 mi
1:30 PM86 °FSunny.9 mph10%29.95 "Hg10 mi
1:00 PM86 °FSunny.7 mph10%29.98 "Hg10 mi
12:30 PM84 °FSunny.9 mph12%29.98 "Hg10 mi
12:00 PM84 °FSunny.7 mph10%29.98 "Hg10 mi
11:30 AM82 °FSunny.7 mph13%29.98 "Hg10 mi
11:00 AM82 °FSunny.5 mph13%29.98 "Hg10 mi
10:30 AM79 °FSunny.5 mph17%30.01 "Hg10 mi
10:00 AM77 °FSunny.No wind15%30.01 "Hg10 mi
9:30 AM75 °FSunny.7 mph15%30.01 "Hg10 mi
9:00 AM73 °FSunny.9 mph19%30.01 "Hg10 mi
8:30 AM70 °FSunny.7 mph20%30.01 "Hg10 mi
8:00 AM68 °FSunny.5 mph23%30.01 "Hg10 mi
7:30 AM63 °FSunny.7 mph25%30.01 "Hg10 mi
7:00 AM59 °FClear.5 mph29%30.01 "Hg10 mi
6:30 AM57 °FClear.7 mph31%29.98 "Hg4 mi
6:00 AM57 °FClear.7 mph31%29.98 "Hg4 mi
5:30 AM57 °FClear.9 mph31%29.98 "Hg10 mi
5:00 AM61 °FClear.9 mph25%29.98 "Hg10 mi
4:30 AM61 °FClear.7 mph27%29.98 "Hg10 mi
4:00 AM61 °FClear.No wind27%29.98 "Hg10 mi
3:30 AM63 °FClear.7 mph27%29.98 "Hg10 mi
3:00 AM63 °FClear.7 mph27%29.98 "Hg10 mi
2:30 AM64 °FClear.7 mph26%29.98 "Hg10 mi
2:00 AM64 °FClear.9 mph26%29.98 "Hg10 mi
1:30 AM64 °FClear.5 mph24%29.98 "Hg10 mi
1:00 AM64 °FClear.7 mph22%29.98 "Hg10 mi
12:30 AM63 °FClear.No wind27%29.98 "Hg10 mi
12:00 AM64 °FClear.7 mph24%29.98 "Hg10 mi
11:30 PM
Mon, May 23
63 °FClear.9 mph20%29.98 "Hg10 mi
11:00 PM66 °FClear.7 mph18%29.95 "Hg10 mi
10:30 PM72 °FClear.7 mph16%29.95 "Hg10 mi
10:00 PM75 °FClear.7 mph11%29.95 "Hg10 mi
9:30 PM75 °FClear.7 mph14%29.95 "Hg10 mi
9:00 PM75 °FSunny.7 mph13%29.92 "Hg10 mi
8:30 PM79 °FSunny.No wind12%29.92 "Hg10 mi
8:00 PM82 °FPassing clouds.No wind10%29.92 "HgN/A
7:30 PM86 °FPassing clouds.7 mph9%29.92 "HgN/A
7:00 PM88 °FPassing clouds.No wind9%29.92 "HgN/A
6:30 PM88 °FPassing clouds.9 mph9%29.89 "HgN/A
6:00 PM88 °FPassing clouds.12 mph10%29.89 "HgN/A
5:30 PM88 °FPassing clouds.12 mph9%29.92 "HgN/A
5:00 PM88 °FPassing clouds.7 mph9%29.92 "HgN/A
4:30 PM88 °FPassing clouds.12 mph11%29.92 "HgN/A
4:00 PM88 °FPassing clouds.12 mph9%29.92 "HgN/A
Weather by CustomWeather, © 2016

See weather overviewHow to use our weather pages